W6HN Weather Reports


Display with metric or nautical units.
time (UTC)temp
F
wind
direction
speed
MPH
gust
MPH
rain 1hr
in
rain 24hr
in
rain mn
in
humidity
%
barometer
mb
20171118193840 59 295 0.0 0.0 0.00 0.00 0.00 57 1019.8
20171118193352 58 295 0.0 0.0 0.00 0.00 0.00 56 1019.9
20171118192847 58 295 0.0 0.0 0.00 0.00 0.00 57 1019.9
20171118192356 58 295 0.0 0.0 0.00 0.00 0.00 59 1019.9
20171118191855 58 295 0.0 0.0 0.00 0.00 0.00 57 1020.1
20171118191351 58 295 0.0 0.0 0.00 0.00 0.00 56 1020.1
20171118190842 58 295 0.0 0.0 0.00 0.00 0.00 54 1020.1
20171118190343 58 298 0.0 0.0 0.00 0.00 0.00 56 1020.3
20171118185859 57 298 0.0 0.0 0.00 0.00 0.00 60 1020.3
20171118185342 56 298 0.0 0.0 0.00 0.00 0.00 60 1020.3
20171118184849 56 298 0.0 0.0 0.00 0.00 0.00 64 1020.4
20171118184340 55 298 0.0 0.0 0.00 0.00 0.00 66 1020.4
20171118183856 55 298 0.0 0.0 0.00 0.00 0.00 61 1020.4
20171118183354 54 298 0.0 0.0 0.00 0.00 0.00 66 1020.4
20171118182847 54 298 0.0 0.0 0.00 0.00 0.00 66 1020.4
20171118182353 54 298 0.0 0.0 0.00 0.00 0.00 63 1020.4
20171118181855 54 298 0.0 0.0 0.00 0.00 0.00 65 1020.4
20171118181350 54 298 0.0 0.0 0.00 0.00 0.00 65 1020.4
20171118180851 53 298 0.0 0.0 0.00 0.00 0.00 66 1020.4
20171118180354 53 298 0.0 0.0 0.00 0.00 0.00 70 1020.5
20171118175853 52 298 0.0 0.0 0.00 0.00 0.00 72 1020.5
20171118175344 51 298 0.0 0.0 0.00 0.00 0.00 70 1020.5
20171118174842 51 298 0.0 0.0 0.00 0.00 0.00 75 1020.7
20171118174352 50 298 0.0 0.0 0.00 0.00 0.00 76 1020.7
20171118173848 49 298 0.0 0.0 0.00 0.00 0.00 79 1020.7
20171118173343 47 298 0.0 0.0 0.00 0.00 0.00 82 1020.6
20171118172842 47 298 0.0 0.0 0.00 0.00 0.00 85 1020.6
20171118172348 46 298 0.0 0.0 0.00 0.00 0.00 85 1020.6
20171118171845 46 298 0.0 0.0 0.00 0.00 0.00 84 1020.5
20171118171357 46 298 0.0 0.0 0.00 0.00 0.00 84 1020.5
20171118170839 46 298 0.0 0.0 0.00 0.00 0.00 84 1020.5
20171118170352 47 298 0.0 0.0 0.00 0.00 0.00 82 1020.8
20171118165853 47 298 0.0 0.0 0.00 0.00 0.00 80 1020.8
20171118165351 47 298 0.0 0.0 0.00 0.00 0.00 81 1020.8
20171118164847 46 298 0.0 0.0 0.00 0.00 0.00 80 1021.0
20171118164356 46 298 0.0 0.0 0.00 0.00 0.00 81 1021.0
20171118163856 46 298 0.0 0.0 0.00 0.00 0.00 82 1021.0
20171118163358 46 298 0.0 0.0 0.00 0.00 0.00 83 1020.9
20171118162847 45 298 0.0 0.0 0.00 0.00 0.00 85 1020.9
20171118162349 44 298 0.0 0.0 0.00 0.00 0.00 86 1020.9
20171118161854 43 298 0.0 0.0 0.00 0.00 0.00 88 1020.9
20171118161350 43 298 0.0 0.0 0.00 0.00 0.00 88 1020.9
20171118160849 42 298 0.0 0.0 0.00 0.00 0.00 90 1020.9
20171118160347 41 298 0.0 0.0 0.00 0.00 0.00 90 1020.8
20171118155848 40 298 0.0 0.0 0.00 0.00 0.00 92 1020.8
20171118155357 39 298 0.0 0.0 0.00 0.00 0.00 91 1020.8
20171118154857 39 298 0.0 0.0 0.00 0.00 0.00 92 1020.5
20171118154354 38 298 0.0 0.0 0.00 0.00 0.00 92 1020.4
20171118153853 38 298 0.0 0.0 0.00 0.00 0.00 92 1020.4
20171118153354 38 298 0.0 0.0 0.00 0.00 0.00 93 1020.4
20171118152842 38 298 0.0 0.0 0.00 0.00 0.00 94 1020.4
20171118152353 37 298 0.0 0.0 0.00 0.00 0.00 94 1020.4
20171118151847 37 298 0.0 0.0 0.00 0.00 0.00 94 1020.2
20171118151346 37 298 0.0 0.0 0.00 0.00 0.00 94 1020.2
20171118150841 37 298 0.0 0.0 0.00 0.00 0.00 94 1020.2
20171118150353 36 298 0.0 0.0 0.00 0.00 0.00 94 1020.1
20171118145846 36 298 0.0 0.0 0.00 0.00 0.00 94 1020.1
20171118145347 36 298 0.0 0.0 0.00 0.00 0.00 94 1020.1
20171118144857 36 298 0.0 0.0 0.00 0.00 0.00 94 1020.0
20171118144354 36 298 0.0 0.0 0.00 0.00 0.00 94 1020.0
20171118143856 36 298 0.0 0.0 0.00 0.00 0.00 93 1020.0
20171118143353 37 298 0.0 0.0 0.00 0.00 0.00 94 1019.9
20171118142850 37 298 0.0 0.0 0.00 0.00 0.00 94 1019.9
20171118142348 37 298 0.0 0.0 0.00 0.00 0.00 94 1019.9
20171118141852 37 298 0.0 0.0 0.00 0.00 0.00 94 1019.8
20171118141356 37 298 0.0 0.0 0.00 0.00 0.00 94 1019.8
20171118140841 37 298 0.0 0.0 0.00 0.00 0.00 94 1019.8
20171118140340 37 298 0.0 0.0 0.00 0.00 0.00 94 1019.6
20171118135858 37 298 0.0 0.0 0.00 0.00 0.00 94 1019.6
20171118135355 37 298 0.0 0.0 0.00 0.00 0.00 94 1019.6
20171118134853 37 298 0.0 0.0 0.00 0.00 0.00 94 1019.4
20171118134357 37 298 0.0 0.0 0.00 0.00 0.00 94 1019.4
20171118133841 37 298 0.0 0.0 0.00 0.00 0.00 94 1019.4
20171118133358 37 298 0.0 0.0 0.00 0.00 0.00 94 1019.3
20171118132850 37 298 0.0 0.0 0.00 0.00 0.00 94 1019.3
20171118132351 37 298 0.0 0.0 0.00 0.00 0.00 94 1019.3
20171118131846 37 298 0.0 0.0 0.00 0.00 0.00 94 1019.0
20171118131351 37 298 0.0 0.0 0.00 0.00 0.00 94 1019.0
20171118130851 37 298 0.0 0.0 0.00 0.00 0.00 94 1019.0
20171118130358 37 298 0.0 0.0 0.00 0.00 0.00 94 1019.3
20171118125855 37 298 0.0 0.0 0.00 0.00 0.00 94 1019.3
20171118125352 37 298 0.0 0.0 0.00 0.00 0.00 94 1019.3
20171118124857 37 298 0.0 0.0 0.00 0.00 0.00 94 1019.1
20171118124353 37 298 0.0 0.0 0.00 0.00 0.00 94 1019.1
20171118123855 38 298 0.0 0.0 0.00 0.00 0.00 94 1019.1
20171118123349 38 298 0.0 0.0 0.00 0.00 0.00 94 1019.2
20171118122849 38 298 0.0 0.0 0.00 0.00 0.00 94 1019.2
20171118122342 38 298 0.0 0.0 0.00 0.00 0.00 94 1019.2
20171118121849 38 298 0.0 0.0 0.00 0.00 0.00 94 1019.1
20171118121348 38 298 0.0 0.0 0.00 0.00 0.00 94 1019.1
20171118120844 38 298 0.0 0.0 0.00 0.00 0.00 94 1019.1
20171118120349 38 298 0.0 0.0 0.00 0.00 0.00 94 1019.3
20171118115841 38 298 0.0 0.0 0.00 0.00 0.00 94 1019.3
20171118115339 38 298 0.0 0.0 0.00 0.00 0.00 94 1019.3
20171118114848 38 298 0.0 0.0 0.00 0.00 0.00 94 1019.4
20171118114353 38 298 0.0 0.0 0.00 0.00 0.00 94 1019.4
20171118113848 38 298 0.0 0.0 0.00 0.00 0.00 93 1019.4
20171118113347 38 298 0.0 0.0 0.00 0.00 0.00 94 1019.4
20171118112847 38 298 0.0 0.0 0.00 0.00 0.00 93 1019.4
20171118112340 39 298 0.0 0.0 0.00 0.00 0.00 93 1019.4
20171118111849 39 298 0.0 0.0 0.00 0.00 0.00 93 1019.4
20171118111346 39 298 0.0 0.0 0.00 0.00 0.00 93 1019.4
20171118110858 39 298 0.0 0.0 0.00 0.00 0.00 93 1019.4
20171118110341 39 298 0.0 0.0 0.00 0.00 0.00 93 1019.4
20171118105855 39 298 0.0 0.0 0.00 0.00 0.00 93 1019.4
20171118105357 39 298 0.0 0.0 0.00 0.00 0.00 94 1019.4
20171118104845 40 298 0.0 0.0 0.00 0.00 0.00 94 1019.5
20171118104344 40 298 0.0 0.0 0.00 0.00 0.00 94 1019.5
20171118103842 39 298 0.0 0.0 0.00 0.00 0.00 94 1019.4
20171118103340 39 298 0.0 0.0 0.00 0.00 0.00 93 1019.4
20171118102844 39 298 0.0 0.0 0.00 0.00 0.00 93 1019.4
20171118102346 40 298 0.0 0.0 0.00 0.00 0.00 94 1019.4
20171118101847 40 298 0.0 0.0 0.00 0.00 0.00 94 1019.4
20171118101341 40 298 0.0 0.0 0.00 0.00 0.00 94 1019.4
20171118100857 39 298 0.0 0.0 0.00 0.00 0.00 94 1019.4
20171118100341 39 298 0.0 0.0 0.00 0.00 0.00 93 1019.4
20171118095850 39 298 0.0 0.0 0.00 0.00 0.00 93 1019.4
20171118095354 39 298 0.0 0.0 0.00 0.00 0.00 94 1019.4
20171118094859 39 298 0.0 0.0 0.00 0.00 0.00 93 1019.3
20171118094346 39 298 0.0 0.0 0.00 0.00 0.00 93 1019.3
20171118093855 39 298 0.0 0.0 0.00 0.00 0.00 92 1019.3
20171118093354 39 298 0.0 0.0 0.00 0.00 0.00 92 1019.2
20171118092859 39 298 0.0 0.0 0.00 0.00 0.00 92 1019.2
20171118092358 39 298 0.0 0.0 0.00 0.00 0.00 92 1019.2
20171118091844 39 298 0.0 0.0 0.00 0.00 0.00 91 1019.2
20171118091359 39 298 0.0 0.0 0.00 0.00 0.00 91 1019.2
20171118090849 40 298 0.0 0.0 0.00 0.00 0.00 91 1019.2
20171118090347 40 298 0.0 0.0 0.00 0.00 0.00 90 1019.1
20171118085840 40 298 0.0 0.0 0.00 0.00 0.00 90 1019.1
20171118085340 40 298 0.0 0.0 0.00 0.00 0.00 90 1019.1
20171118084839 40 298 0.0 0.0 0.00 0.00 0.00 89 1019.1
20171118084346 40 298 0.0 0.0 0.00 0.00 0.00 89 1019.1
20171118083847 40 298 0.0 0.0 0.00 0.00 0.00 89 1019.1
20171118083348 41 298 0.0 0.0 0.00 0.00 0.00 88 1018.9
20171118082846 41 298 0.0 0.0 0.00 0.00 0.00 88 1018.9
20171118082342 41 298 0.0 0.0 0.00 0.00 0.00 87 1018.9
20171118081855 41 298 0.0 0.0 0.00 0.00 0.00 87 1018.9
20171118081345 42 298 0.0 0.0 0.00 0.00 0.00 87 1018.9
20171118080840 42 298 0.0 0.0 0.00 0.00 0.00 87 1018.9
20171118080346 42 298 0.0 0.0 0.00 0.00 0.00 87 1018.9
20171118075856 42 298 0.0 0.0 0.00 0.00 0.00 87 1018.9
20171118075352 42 298 0.0 0.0 0.00 0.00 0.00 88 1018.9
20171118074841 42 298 0.0 0.0 0.00 0.00 0.00 89 1018.9
20171118074357 43 298 0.0 0.0 0.00 0.00 0.00 89 1018.9
20171118073850 42 298 0.0 0.0 0.00 0.00 0.00 89 1018.9
20171118073349 43 298 0.0 0.0 0.00 0.00 0.00 89 1019.2
20171118072853 43 298 0.0 0.0 0.00 0.00 0.00 88 1019.2
20171118072348 43 298 0.0 0.0 0.00 0.00 0.00 89 1019.2
20171118071847 42 298 0.0 0.0 0.00 0.00 0.00 89 1019.4
20171118071343 43 298 0.0 0.0 0.00 0.00 0.00 88 1019.4
20171118070841 43 298 0.0 0.0 0.00 0.00 0.00 87 1019.4
20171118070347 43 298 0.0 0.0 0.00 0.00 0.00 87 1019.4
20171118065844 43 298 0.0 0.0 0.00 0.00 0.00 86 1019.4
20171118065342 43 298 0.0 0.0 0.00 0.00 0.00 86 1019.4
20171118064855 43 298 0.0 0.0 0.00 0.00 0.00 85 1019.3
20171118064358 44 298 0.0 0.0 0.00 0.00 0.00 85 1019.3
20171118063841 43 298 0.0 0.0 0.00 0.00 0.00 87 1019.3
20171118063359 43 298 0.0 0.0 0.00 0.00 0.00 87 1019.3
20171118062858 44 298 0.0 0.0 0.00 0.00 0.00 86 1019.3
20171118062345 44 298 0.0 0.0 0.00 0.00 0.00 86 1019.3
20171118061853 44 298 0.0 0.0 0.00 0.00 0.00 86 1019.4
20171118061348 44 298 0.0 0.0 0.00 0.00 0.00 85 1019.4
20171118060857 45 298 0.0 0.0 0.00 0.00 0.00 85 1019.4
20171118060336 44 298 0.0 0.0 0.00 0.00 0.00 85 1019.2
20171118055851 44 298 0.0 0.0 0.00 0.00 0.00 84 1019.2
20171118055357 45 298 0.0 0.0 0.00 0.00 0.00 83 1019.2
20171118054857 45 298 0.0 0.0 0.00 0.00 0.00 82 1019.0
20171118054346 45 298 0.0 0.0 0.00 0.00 0.00 82 1019.0
20171118053850 45 298 0.0 0.0 0.00 0.00 0.00 82 1019.0
20171118053346 45 298 0.0 0.0 0.00 0.00 0.00 81 1018.9
20171118052846 46 298 0.0 0.0 0.00 0.00 0.00 80 1018.9
20171118052341 46 298 0.0 0.0 0.00 0.00 0.00 80 1018.9
20171118051845 46 298 0.0 0.0 0.00 0.00 0.00 80 1018.8
20171118051344 46 298 0.0 0.0 0.00 0.00 0.00 79 1018.8
20171118050846 47 298 0.0 0.0 0.00 0.00 0.00 78 1018.8
20171118050354 47 298 0.0 0.0 0.00 0.00 0.00 77 1018.8
20171118045853 47 298 0.0 0.0 0.00 0.00 0.00 75 1018.8
20171118045343 48 298 0.0 0.0 0.00 0.00 0.00 74 1018.8
20171118044846 48 298 0.0 0.0 0.00 0.00 0.00 73 1018.5
20171118044349 48 298 0.0 0.0 0.00 0.00 0.00 77 1018.5
20171118043841 48 298 2.0 0.0 0.00 0.00 0.00 79 1018.5
20171118043341 48 294 3.0 0.0 0.00 0.00 0.00 80 1018.4
20171118042849 48 296 3.0 0.0 0.00 0.00 0.00 79 1018.4
20171118042347 48 307 2.0 0.0 0.00 0.00 0.00 79 1018.4
20171118041848 48 290 3.0 0.0 0.00 0.00 0.00 78 1018.3
20171118041346 49 293 3.0 0.0 0.00 0.00 0.00 78 1018.3
20171118040847 49 304 3.0 0.0 0.00 0.00 0.00 77 1018.3
20171118040359 49 286 2.0 0.0 0.00 0.00 0.00 77 1018.2
20171118035845 49 292 1.0 0.0 0.00 0.00 0.00 77 1018.2
20171118035340 48 294 1.0 0.0 0.00 0.00 0.00 77 1018.2
20171118034840 48 294 1.0 0.0 0.00 0.00 0.00 80 1018.3
20171118034349 48 296 0.0 0.0 0.00 0.00 0.00 83 1018.3
20171118033843 47 299 0.0 0.0 0.00 0.00 0.00 84 1018.3
20171118033355 47 301 0.0 0.0 0.00 0.00 0.00 84 1018.3
20171118032855 47 301 1.0 0.0 0.00 0.00 0.00 84 1018.3
20171118032340 47 301 2.0 0.0 0.00 0.00 0.00 84 1018.3
20171118031854 47 279 1.0 0.0 0.00 0.00 0.00 86 1018.4
20171118031345 47 296 1.0 0.0 0.00 0.00 0.00 87 1018.4
20171118030839 47 264 1.0 0.0 0.00 0.00 0.00 88 1018.4
20171118030358 47 288 1.0 0.0 0.00 0.00 0.00 88 1018.5
20171118025842 47 286 1.0 0.0 0.00 0.00 0.00 88 1018.5
20171118025350 47 286 0.0 0.0 0.00 0.00 0.00 87 1018.5
20171118024856 47 284 0.0 0.0 0.00 0.00 0.00 87 1018.7
20171118024349 48 283 0.0 0.0 0.00 0.00 0.00 87 1018.7
20171118023858 48 283 0.0 0.0 0.00 0.00 0.00 87 1018.7
20171118023356 48 283 0.0 0.0 0.00 0.00 0.00 86 1018.7
20171118022855 49 282 2.0 0.0 0.00 0.00 0.00 86 1018.7
20171118022351 49 282 2.0 0.0 0.00 0.00 0.00 85 1018.7
20171118021855 49 229 1.0 0.0 0.00 0.00 0.00 85 1018.8
20171118021351 49 228 0.0 0.0 0.00 0.00 0.00 84 1018.8
20171118020851 50 228 1.0 0.0 0.00 0.00 0.00 84 1018.8
20171118020346 50 228 1.0 0.0 0.00 0.00 0.00 83 1018.7
20171118015854 50 228 0.0 0.0 0.00 0.00 0.00 83 1018.7
20171118015357 50 227 0.0 0.0 0.00 0.00 0.00 82 1018.7
20171118014844 51 227 0.0 0.0 0.00 0.00 0.00 81 1018.5
20171118014339 51 227 1.0 0.0 0.00 0.00 0.00 79 1018.5
20171118013856 52 227 1.0 0.0 0.00 0.00 0.00 77 1018.5
20171118013342 52 227 1.0 0.0 0.00 0.00 0.00 75 1018.4
20171118012852 52 226 0.0 0.0 0.00 0.00 0.00 73 1018.4
20171118012348 53 223 0.0 0.0 0.00 0.00 0.00 72 1018.4
20171118011844 54 223 0.0 0.0 0.00 0.00 0.00 71 1018.3
20171118011343 54 223 0.0 0.0 0.00 0.00 0.00 72 1018.3
20171118010849 55 223 0.0 0.0 0.00 0.00 0.00 69 1018.3
20171118010358 55 223 0.0 0.0 0.00 0.00 0.00 67 1018.2
20171118005851 56 223 1.0 0.0 0.00 0.00 0.00 64 1018.2
20171118005348 57 223 1.0 0.0 0.00 0.00 0.00 62 1018.3
20171118004850 58 223 0.0 0.0 0.00 0.00 0.00 62 1018.2
20171118004352 59 221 0.0 0.0 0.00 0.00 0.00 60 1018.2
20171118003854 60 221 0.0 0.0 0.00 0.00 0.00 59 1018.2
20171118003358 61 221 0.0 0.0 0.00 0.00 0.00 60 1018.1
20171118002837 61 221 0.0 0.0 0.00 0.00 0.00 59 1018.1
20171118002354 62 221 0.0 0.0 0.00 0.00 0.00 55 1018.1
20171118001858 62 221 0.0 0.0 0.00 0.00 0.00 53 1018.1
20171118001345 62 221 0.0 0.0 0.00 0.00 0.00 53 1018.1
20171118000853 63 221 0.0 0.0 0.00 0.00 0.00 49 1018.1
20171118000354 63 221 0.0 0.0 0.00 0.00 0.00 49 1018.2
20171117235847 64 221 0.0 0.0 0.00 0.00 0.00 48 1018.2
20171117235345 64 221 0.0 0.0 0.00 0.00 0.00 48 1018.2
20171117234849 65 221 0.0 0.0 0.00 0.00 0.00 47 1018.2
20171117234358 64 221 0.0 0.0 0.00 0.00 0.00 51 1018.2
20171117233851 64 221 0.0 0.0 0.00 0.00 0.00 50 1018.2
20171117233347 63 221 0.0 0.0 0.00 0.00 0.00 50 1018.1
20171117232851 64 221 1.0 0.0 0.00 0.00 0.00 49 1018.1
20171117232339 64 221 1.0 0.0 0.00 0.00 0.00 52 1018.1
20171117231840 64 221 1.0 0.0 0.00 0.00 0.00 50 1018.2
20171117231348 64 221 1.0 0.0 0.00 0.00 0.00 51 1018.2
20171117230839 64 222 1.0 0.0 0.00 0.00 0.00 52 1018.2
20171117230355 64 222 1.0 0.0 0.00 0.00 0.00 50 1018.3
20171117225858 64 222 0.0 0.0 0.00 0.00 0.00 51 1018.3
20171117225340 64 222 1.0 0.0 0.00 0.00 0.00 52 1018.3
20171117224858 64 222 2.0 0.0 0.00 0.00 0.00 52 1018.3
20171117224347 64 221 1.0 0.0 0.00 0.00 0.00 49 1018.3
20171117223851 65 221 0.0 0.0 0.00 0.00 0.00 52 1018.3
20171117223343 64 221 1.0 0.0 0.00 0.00 0.00 53 1018.2
20171117222846 64 219 1.0 0.0 0.00 0.00 0.00 54 1018.2
20171117222348 64 219 0.0 0.0 0.00 0.00 0.00 54 1018.2
20171117221850 63 219 2.0 0.0 0.00 0.00 0.00 56 1018.3
20171117221345 63 219 3.0 0.0 0.00 0.00 0.00 55 1018.3
20171117220852 63 220 4.0 0.0 0.00 0.00 0.00 57 1018.3
20171117220353 63 221 4.0 0.0 0.00 0.00 0.00 54 1018.3
20171117215849 63 221 3.0 0.0 0.00 0.00 0.00 53 1018.3
20171117215347 64 221 1.0 0.0 0.00 0.00 0.00 53 1018.3
20171117214845 63 222 1.0 0.0 0.00 0.00 0.00 58 1018.3
20171117214351 63 221 2.0 0.0 0.00 0.00 0.00 51 1018.3
20171117213837 64 221 2.0 0.0 0.00 0.00 0.00 55 1018.3
20171117213353 64 290 2.0 0.0 0.00 0.00 0.00 55 1018.3
20171117212837 64 292 1.0 0.0 0.00 0.00 0.00 56 1018.3
20171117212341 64 292 0.0 0.0 0.00 0.00 0.00 57 1018.3
20171117211853 64 292 0.0 0.0 0.00 0.00 0.00 54 1018.3
20171117211339 63 292 0.0 0.0 0.00 0.00 0.00 54 1018.3
20171117210845 63 292 0.0 0.0 0.00 0.00 0.00 58 1018.3
20171117210354 63 292 1.0 0.0 0.00 0.00 0.00 58 1018.4
20171117205837 62 292 0.0 0.0 0.00 0.00 0.00 57 1018.3
20171117205407 62 292 0.0 0.0 0.00 0.00 0.00 60 1018.3
20171117204848 62 292 0.0 0.0 0.00 0.00 0.00 58 1018.3
20171117204354 62 292 1.0 0.0 0.00 0.00 0.00 60 1018.3
20171117203852 61 292 2.0 0.0 0.00 0.00 0.00 61 1018.3
20171117203356 61 292 2.0 0.0 0.00 0.00 0.00 61 1018.4
20171117202847 61 292 2.0 0.0 0.00 0.00 0.00 62 1018.4
20171117202357 61 292 1.0 0.0 0.00 0.00 0.00 63 1018.4
20171117201842 61 292 0.0 0.0 0.00 0.00 0.00 62 1018.5
20171117201355 61 292 0.0 0.0 0.00 0.00 0.00 62 1018.5
20171117200851 60 292 1.0 0.0 0.00 0.00 0.00 61 1018.5
20171117200351 60 292 2.0 0.0 0.00 0.00 0.00 64 1018.7
20171117195858 59 292 2.0 0.0 0.00 0.00 0.00 64 1018.7
20171117195342 60 292 2.0 0.0 0.00 0.00 0.00 65 1018.7
20171117194844 59 292 2.0 0.0 0.00 0.00 0.00 69 1018.8
20171117194343 59 293 1.0 0.0 0.00 0.00 0.00 65 1018.8